Time,TemperatureF,DewpointF,PressureIn,WindDirection,WindDirectionDegrees,WindSpeedMPH,WindSpeedGustMPH,Humidity,HourlyPrecipIn,Conditions,Clouds,dailyrainin,SoftwareType,DateUTC
2013-07-17 00:00:00,75.3,72.8,30.21,SSW,210,0.0,0.0,92,0.00,,---,0.00,VWS V14.00,2013-07-17 04:00:00,
2013-07-17 00:01:00,75.3,72.8,30.21,SSW,210,0.0,0.0,92,0.00,,---,0.00,VWS V14.00,2013-07-17 04:01:00,
2013-07-17 00:06:00,75.3,72.8,30.20,SSW,211,0.0,0.0,92,0.00,,---,0.00,VWS V14.00,2013-07-17 04:06:00,
2013-07-17 00:11:00,75.1,72.6,30.20,SSW,210,0.0,0.0,92,0.00,,---,0.00,VWS V14.00,2013-07-17 04:11:00,
2013-07-17 00:16:00,74.9,72.4,30.20,SSW,210,0.0,0.0,92,0.00,,---,0.00,VWS V14.00,2013-07-17 04:16:00,
2013-07-17 00:21:00,74.7,72.2,30.20,SSW,210,0.0,0.0,92,0.00,,---,0.00,VWS V14.00,2013-07-17 04:21:00,
2013-07-17 00:26:00,74.6,72.1,30.20,SSW,210,0.0,0.0,92,0.00,,---,0.00,VWS V14.00,2013-07-17 04:26:00,
2013-07-17 00:31:00,74.7,72.2,30.20,SSW,210,0.0,0.0,92,0.00,,---,0.00,VWS V14.00,2013-07-17 04:31:00,
2013-07-17 00:36:00,74.7,72.6,30.19,SSW,210,0.0,0.0,93,0.00,,---,0.00,VWS V14.00,2013-07-17 04:36:00,
2013-07-17 00:41:00,74.7,72.6,30.19,SSW,210,0.0,0.0,93,0.00,,---,0.00,VWS V14.00,2013-07-17 04:41:00,
2013-07-17 00:46:00,74.7,72.6,30.19,SSW,210,0.0,0.0,93,0.00,,---,0.00,VWS V14.00,2013-07-17 04:46:00,
2013-07-17 00:51:00,74.7,72.6,30.19,SSW,211,0.0,0.0,93,0.00,,---,0.00,VWS V14.00,2013-07-17 04:51:00,
2013-07-17 00:55:00,74.7,72.6,30.19,SSW,210,0.0,0.0,93,0.00,,---,0.00,VWS V14.00,2013-07-17 04:55:00,
2013-07-17 00:59:00,74.6,72.4,30.19,SSW,210,0.0,0.0,93,0.00,,---,0.00,VWS V14.00,2013-07-17 04:59:00,
2013-07-17 01:04:00,74.4,72.2,30.19,SSW,210,0.0,0.0,93,0.00,,---,0.00,VWS V14.00,2013-07-17 05:04:00,
2013-07-17 01:09:00,74.4,72.2,30.19,SW,220,2.0,3.0,93,0.00,,---,0.00,VWS V14.00,2013-07-17 05:09:00,
2013-07-17 01:14:00,74.4,72.2,30.19,SW,221,1.0,4.0,93,0.00,,---,0.00,VWS V14.00,2013-07-17 05:14:00,
2013-07-17 01:19:00,74.4,72.2,30.19,SW,221,2.0,4.0,93,0.00,,---,0.00,VWS V14.00,2013-07-17 05:19:00,
2013-07-17 01:24:00,74.4,72.2,30.20,SW,224,0.0,4.0,93,0.00,,---,0.00,VWS V14.00,2013-07-17 05:24:00,
2013-07-17 01:29:00,74.7,72.6,30.20,West,260,2.0,4.0,93,0.00,,---,0.00,VWS V14.00,2013-07-17 05:29:00,
2013-07-17 01:34:00,74.9,72.7,30.20,WSW,254,2.0,4.0,93,0.00,,---,0.00,VWS V14.00,2013-07-17 05:34:00,
2013-07-17 01:39:00,74.8,72.6,30.20,WSW,246,2.0,4.0,93,0.00,,---,0.00,VWS V14.00,2013-07-17 05:39:00,
2013-07-17 01:44:00,74.7,72.6,30.19,WSW,249,2.0,5.0,93,0.00,,---,0.00,VWS V14.00,2013-07-17 05:44:00,
2013-07-17 01:49:00,74.6,72.4,30.19,WSW,247,3.0,5.0,93,0.00,,---,0.00,VWS V14.00,2013-07-17 05:49:00,
2013-07-17 01:54:00,74.7,72.6,30.19,WSW,251,3.0,7.0,93,0.00,,---,0.00,VWS V14.00,2013-07-17 05:54:00,
2013-07-17 01:59:00,74.7,72.6,30.19,WSW,254,5.0,6.0,93,0.00,,---,0.00,VWS V14.00,2013-07-17 05:59:00,
2013-07-17 02:04:00,74.7,72.6,30.19,WSW,247,5.0,6.0,93,0.00,,---,0.00,VWS V14.00,2013-07-17 06:04:00,
2013-07-17 02:09:00,74.8,72.6,30.19,WSW,249,4.0,6.0,93,0.00,,---,0.00,VWS V14.00,2013-07-17 06:09:00,
2013-07-17 02:14:00,74.8,72.6,30.19,WSW,254,3.0,6.0,93,0.00,,---,0.00,VWS V14.00,2013-07-17 06:14:00,
2013-07-17 02:19:00,74.9,72.7,30.19,WSW,256,3.0,7.0,93,0.00,,---,0.00,VWS V14.00,2013-07-17 06:19:00,
2013-07-17 02:24:00,74.8,72.6,30.19,West,260,3.0,7.0,93,0.00,,---,0.00,VWS V14.00,2013-07-17 06:24:00,
2013-07-17 02:29:00,74.8,72.6,30.19,WSW,248,0.0,1.0,93,0.00,,---,0.00,VWS V14.00,2013-07-17 06:29:00,
2013-07-17 02:34:00,74.7,72.6,30.19,WSW,242,1.0,4.0,93,0.00,,---,0.00,VWS V14.00,2013-07-17 06:34:00,
2013-07-17 02:39:00,74.7,72.6,30.19,WSW,241,0.0,5.0,93,0.00,,---,0.00,VWS V14.00,2013-07-17 06:39:00,
2013-07-17 02:44:00,74.6,72.4,30.19,West,263,2.0,5.0,93,0.00,,---,0.00,VWS V14.00,2013-07-17 06:44:00,
2013-07-17 02:49:00,74.6,72.4,30.19,WSW,243,3.0,5.0,93,0.00,,---,0.00,VWS V14.00,2013-07-17 06:49:00,
2013-07-17 02:54:00,74.6,72.4,30.19,WSW,246,0.0,5.0,93,0.00,,---,0.00,VWS V14.00,2013-07-17 06:54:00,
2013-07-17 02:59:00,74.5,72.3,30.19,WSW,246,3.0,4.0,93,0.00,,---,0.00,VWS V14.00,2013-07-17 06:59:00,
2013-07-17 03:04:00,74.5,72.3,30.19,WSW,247,3.0,4.0,93,0.00,,---,0.00,VWS V14.00,2013-07-17 07:04:00,
2013-07-17 03:09:00,74.6,72.4,30.19,WSW,245,0.0,4.0,93,0.00,,---,0.00,VWS V14.00,2013-07-17 07:09:00,
2013-07-17 03:14:00,74.5,72.3,30.18,WSW,245,0.0,4.0,93,0.00,,---,0.00,VWS V14.00,2013-07-17 07:14:00,
2013-07-17 03:19:00,74.4,71.9,30.18,WSW,243,0.0,4.0,92,0.00,,---,0.00,VWS V14.00,2013-07-17 07:19:00,
2013-07-17 03:24:00,74.1,71.6,30.18,WSW,240,3.0,4.0,92,0.00,,---,0.00,VWS V14.00,2013-07-17 07:24:00,
2013-07-17 03:29:00,74.1,71.9,30.18,WSW,247,3.0,3.0,93,0.00,,---,0.00,VWS V14.00,2013-07-17 07:29:00,
2013-07-17 03:34:00,74.2,72.1,30.18,WSW,252,4.0,5.0,93,0.00,,---,0.00,VWS V14.00,2013-07-17 07:34:00,
2013-07-17 03:39:00,74.2,72.1,30.18,WSW,242,3.0,5.0,93,0.00,,---,0.00,VWS V14.00,2013-07-17 07:39:00,
2013-07-17 03:44:00,74.1,71.9,30.18,SW,234,0.0,5.0,93,0.00,,---,0.00,VWS V14.00,2013-07-17 07:44:00,
2013-07-17 03:49:00,74.0,71.8,30.18,SW,235,0.0,5.0,93,0.00,,---,0.00,VWS V14.00,2013-07-17 07:49:00,
2013-07-17 03:54:00,74.0,71.8,30.18,WSW,247,0.0,5.0,93,0.00,,---,0.00,VWS V14.00,2013-07-17 07:54:00,
2013-07-17 03:59:00,74.3,72.2,30.18,West,264,0.0,3.0,93,0.00,,---,0.00,VWS V14.00,2013-07-17 07:59:00,
2013-07-17 04:04:00,74.4,72.2,30.19,NNE,12,7.0,10.0,93,0.00,,---,0.00,VWS V14.00,2013-07-17 08:04:00,
2013-07-17 04:09:00,74.4,71.9,30.19,NW,316,4.0,10.0,92,0.00,,---,0.00,VWS V14.00,2013-07-17 08:09:00,
2013-07-17 04:14:00,74.5,72.0,30.19,North,356,4.0,10.0,92,0.00,,---,0.00,VWS V14.00,2013-07-17 08:14:00,
2013-07-17 04:19:00,74.6,72.1,30.19,North,351,7.0,10.0,92,0.00,,---,0.00,VWS V14.00,2013-07-17 08:19:00,
2013-07-17 04:24:00,74.6,72.1,30.18,NNE,14,5.0,10.0,92,0.00,,---,0.00,VWS V14.00,2013-07-17 08:24:00,
2013-07-17 04:29:00,74.7,72.2,30.18,North,8,0.0,5.0,92,0.00,,---,0.00,VWS V14.00,2013-07-17 08:29:00,
2013-07-17 04:34:00,74.7,72.2,30.18,North,6,3.0,5.0,92,0.00,,---,0.00,VWS V14.00,2013-07-17 08:34:00,
2013-07-17 04:39:00,74.6,72.1,30.17,West,262,0.0,5.0,92,0.00,,---,0.00,VWS V14.00,2013-07-17 08:39:00,
2013-07-17 04:44:00,74.5,72.0,30.18,North,8,2.0,7.0,92,0.00,,---,0.00,VWS V14.00,2013-07-17 08:44:00,
2013-07-17 04:49:00,74.4,71.9,30.18,North,9,0.0,7.0,92,0.00,,---,0.00,VWS V14.00,2013-07-17 08:49:00,
2013-07-17 04:54:00,74.4,71.9,30.18,North,8,0.0,7.0,92,0.00,,---,0.00,VWS V14.00,2013-07-17 08:54:00,
2013-07-17 04:59:00,74.4,71.9,30.18,North,1,0.0,0.0,92,0.00,,---,0.00,VWS V14.00,2013-07-17 08:59:00,
2013-07-17 05:04:00,74.2,72.1,30.18,NNW,330,0.0,0.0,93,0.00,,---,0.00,VWS V14.00,2013-07-17 09:04:00,
2013-07-17 05:09:00,74.2,72.1,30.18,NNW,330,0.0,0.0,93,0.00,,---,0.00,VWS V14.00,2013-07-17 09:09:00,
2013-07-17 05:14:00,74.2,72.1,30.18,NNW,330,0.0,0.0,93,0.00,,---,0.00,VWS V14.00,2013-07-17 09:14:00,
2013-07-17 05:19:00,74.2,72.1,30.18,NNW,330,0.0,0.0,93,0.00,,---,0.00,VWS V14.00,2013-07-17 09:19:00,
2013-07-17 05:24:00,74.1,71.9,30.18,NNW,330,0.0,0.0,93,0.00,,---,0.00,VWS V14.00,2013-07-17 09:24:00,
2013-07-17 05:29:00,74.2,72.1,30.18,NNW,330,0.0,0.0,93,0.00,,---,0.00,VWS V14.00,2013-07-17 09:29:00,
2013-07-17 05:34:00,74.2,72.1,30.18,NNW,330,0.0,0.0,93,0.00,,---,0.00,VWS V14.00,2013-07-17 09:34:00,
2013-07-17 05:39:00,74.1,71.9,30.18,NNW,330,0.0,0.0,93,0.00,,---,0.00,VWS V14.00,2013-07-17 09:39:00,
2013-07-17 05:44:00,73.8,71.7,30.18,NNW,330,0.0,0.0,93,0.00,,---,0.00,VWS V14.00,2013-07-17 09:44:00,
2013-07-17 05:49:00,73.7,71.6,30.19,NNW,330,0.0,0.0,93,0.00,,---,0.00,VWS V14.00,2013-07-17 09:49:00,
2013-07-17 05:54:00,73.6,71.5,30.19,NNW,330,0.0,0.0,93,0.00,,---,0.00,VWS V14.00,2013-07-17 09:54:00,
2013-07-17 05:59:00,73.4,71.3,30.18,NNW,330,0.0,0.0,93,0.00,,---,0.00,VWS V14.00,2013-07-17 09:59:00,
2013-07-17 06:04:00,73.2,71.1,30.18,NNW,330,0.0,0.0,93,0.00,,---,0.00,VWS V14.00,2013-07-17 10:04:00,
2013-07-17 06:09:00,73.1,71.3,30.19,NNW,330,0.0,0.0,94,0.00,,---,0.00,VWS V14.00,2013-07-17 10:09:00,
2013-07-17 06:14:00,73.2,71.4,30.19,NNW,330,0.0,0.0,94,0.00,,---,0.00,VWS V14.00,2013-07-17 10:14:00,
2013-07-17 06:19:00,73.3,71.5,30.19,NNW,330,0.0,0.0,94,0.00,,---,0.00,VWS V14.00,2013-07-17 10:19:00,
2013-07-17 06:24:00,73.5,71.7,30.19,NNW,330,0.0,0.0,94,0.00,,---,0.00,VWS V14.00,2013-07-17 10:24:00,
2013-07-17 06:29:00,73.6,72.1,30.19,NNW,330,0.0,0.0,95,0.00,,---,0.00,VWS V14.00,2013-07-17 10:29:00,
2013-07-17 06:34:00,73.6,71.8,30.19,NNW,330,0.0,0.0,94,0.00,,---,0.00,VWS V14.00,2013-07-17 10:34:00,
2013-07-17 06:39:00,73.6,72.1,30.19,NNW,330,0.0,0.0,95,0.00,,---,0.00,VWS V14.00,2013-07-17 10:39:00,
2013-07-17 06:44:00,73.5,71.7,30.19,NNW,330,0.0,0.0,94,0.00,,---,0.00,VWS V14.00,2013-07-17 10:44:00,
2013-07-17 06:49:00,73.6,72.1,30.19,NNW,330,0.0,0.0,95,0.00,,---,0.00,VWS V14.00,2013-07-17 10:49:00,
2013-07-17 06:54:00,73.5,72.0,30.19,NNW,330,0.0,0.0,95,0.00,,---,0.00,VWS V14.00,2013-07-17 10:54:00,
2013-07-17 06:59:00,73.6,72.1,30.19,NNW,330,0.0,0.0,95,0.00,,---,0.00,VWS V14.00,2013-07-17 10:59:00,
2013-07-17 07:04:00,73.7,72.2,30.19,NW,325,0.0,0.0,95,0.00,,---,0.00,VWS V14.00,2013-07-17 11:04:00,
2013-07-17 07:09:00,73.7,72.2,30.19,West,279,0.0,0.0,95,0.00,,---,0.00,VWS V14.00,2013-07-17 11:09:00,
2013-07-17 07:14:00,73.8,72.3,30.19,West,279,0.0,0.0,95,0.00,,---,0.00,VWS V14.00,2013-07-17 11:14:00,
2013-07-17 07:19:00,74.0,72.5,30.19,West,279,0.0,0.0,95,0.00,,---,0.00,VWS V14.00,2013-07-17 11:19:00,
2013-07-17 07:23:00,74.4,72.9,30.19,SW,218,0.0,4.0,95,0.00,,---,0.00,VWS V14.00,2013-07-17 11:23:00,
2013-07-17 07:29:00,74.6,73.1,30.19,SW,216,0.0,0.0,95,0.00,,---,0.00,VWS V14.00,2013-07-17 11:29:00,
2013-07-17 07:33:00,74.8,73.3,30.19,SW,216,0.0,0.0,95,0.00,,---,0.00,VWS V14.00,2013-07-17 11:33:00,
2013-07-17 07:38:00,75.0,73.5,30.19,SW,224,0.0,0.0,95,0.00,,---,0.00,VWS V14.00,2013-07-17 11:38:00,
2013-07-17 07:43:00,75.3,73.5,30.19,SW,226,0.0,0.0,94,0.00,,---,0.00,VWS V14.00,2013-07-17 11:43:00,
2013-07-17 07:48:00,75.7,73.8,30.19,SW,226,0.0,0.0,94,0.00,,---,0.00,VWS V14.00,2013-07-17 11:48:00,
2013-07-17 07:53:00,76.1,73.9,30.19,NW,325,0.0,5.0,93,0.00,,---,0.00,VWS V14.00,2013-07-17 11:53:00,
2013-07-17 07:58:00,76.4,73.9,30.20,NW,312,2.0,4.0,92,0.00,,---,0.00,VWS V14.00,2013-07-17 11:58:00,
2013-07-17 08:03:00,76.4,73.9,30.20,NW,306,5.0,6.0,92,0.00,,---,0.00,VWS V14.00,2013-07-17 12:03:00,
2013-07-17 08:09:00,76.2,73.4,30.20,WNW,303,4.0,9.0,91,0.00,,---,0.00,VWS V14.00,2013-07-17 12:09:00,
2013-07-17 08:13:00,76.6,74.1,30.20,NW,315,5.0,9.0,92,0.00,,---,0.00,VWS V14.00,2013-07-17 12:13:00,
2013-07-17 08:18:00,77.1,74.3,30.20,NW,308,5.0,9.0,91,0.00,,---,0.00,VWS V14.00,2013-07-17 12:18:00,
2013-07-17 08:23:00,77.5,74.7,30.19,NW,325,6.0,9.0,91,0.00,,---,0.00,VWS V14.00,2013-07-17 12:23:00,
2013-07-17 08:28:00,78.0,74.8,30.19,West,274,3.0,8.0,90,0.00,,---,0.00,VWS V14.00,2013-07-17 12:28:00,
2013-07-17 08:33:00,78.3,74.8,30.20,NW,306,7.0,11.0,89,0.00,,---,0.00,VWS V14.00,2013-07-17 12:33:00,
2013-07-17 08:38:00,78.8,75.3,30.21,NW,321,9.0,12.0,89,0.00,,---,0.00,VWS V14.00,2013-07-17 12:38:00,
2013-07-17 08:43:00,79.1,75.2,30.21,WNW,287,8.0,12.0,88,0.00,,---,0.00,VWS V14.00,2013-07-17 12:43:00,
2013-07-17 08:48:00,79.3,75.4,30.21,NW,316,5.0,15.0,88,0.00,,---,0.00,VWS V14.00,2013-07-17 12:48:00,
2013-07-17 08:53:00,79.9,76.0,30.21,WNW,285,4.0,15.0,88,0.00,,---,0.00,VWS V14.00,2013-07-17 12:53:00,
2013-07-17 08:58:00,79.9,75.3,30.21,NW,317,5.0,8.0,86,0.00,,---,0.00,VWS V14.00,2013-07-17 12:58:00,
2013-07-17 09:03:00,79.8,75.6,30.21,NNW,340,5.0,10.0,87,0.00,,---,0.00,VWS V14.00,2013-07-17 13:03:00,
2013-07-17 09:08:00,80.0,75.4,30.21,NW,317,8.0,11.0,86,0.00,,---,0.00,VWS V14.00,2013-07-17 13:08:00,
2013-07-17 09:13:00,79.8,74.9,30.21,North,353,3.0,12.0,85,0.00,,---,0.00,VWS V14.00,2013-07-17 13:13:00,
2013-07-17 09:18:00,79.4,74.5,30.21,NW,325,6.0,12.0,85,0.00,,---,0.00,VWS V14.00,2013-07-17 13:18:00,
2013-07-17 09:23:00,79.1,74.6,30.21,WNW,296,4.0,12.0,86,0.00,,---,0.00,VWS V14.00,2013-07-17 13:23:00,
2013-07-17 09:28:00,79.2,75.0,30.21,NNW,343,4.0,6.0,87,0.00,,---,0.00,VWS V14.00,2013-07-17 13:28:00,
2013-07-17 09:33:00,79.6,75.4,30.21,NNW,335,8.0,10.0,87,0.00,,---,0.00,VWS V14.00,2013-07-17 13:33:00,
2013-07-17 09:38:00,79.8,75.2,30.21,NNW,330,6.0,10.0,86,0.00,,---,0.00,VWS V14.00,2013-07-17 13:38:00,
2013-07-17 09:43:00,79.7,74.8,30.21,North,352,8.0,11.0,85,0.00,,---,0.00,VWS V14.00,2013-07-17 13:43:00,
2013-07-17 09:48:00,79.8,75.2,30.21,North,8,6.0,11.0,86,0.00,,---,0.00,VWS V14.00,2013-07-17 13:48:00,
2013-07-17 09:53:00,80.1,75.2,30.21,NNE,15,5.0,11.0,85,0.00,,---,0.00,VWS V14.00,2013-07-17 13:53:00,
2013-07-17 09:58:00,80.7,75.4,30.20,NNE,14,6.0,7.0,84,0.00,,---,0.00,VWS V14.00,2013-07-17 13:58:00,
2013-07-17 10:03:00,81.3,75.3,30.20,NW,325,4.0,9.0,82,0.00,,---,0.00,VWS V14.00,2013-07-17 14:03:00,
2013-07-17 10:08:00,81.6,75.2,30.20,North,9,4.0,9.0,81,0.00,,---,0.00,VWS V14.00,2013-07-17 14:08:00,
2013-07-17 10:13:00,81.7,74.9,30.19,NNE,31,4.0,9.0,80,0.00,,---,0.00,VWS V14.00,2013-07-17 14:13:00,
2013-07-17 10:18:00,82.0,75.2,30.19,North,355,7.0,9.0,80,0.00,,---,0.00,VWS V14.00,2013-07-17 14:18:00,
2013-07-17 10:23:00,82.2,75.8,30.19,NNW,342,3.0,9.0,81,0.00,,---,0.00,VWS V14.00,2013-07-17 14:23:00,
2013-07-17 10:28:00,82.7,76.3,30.19,NW,321,2.0,4.0,81,0.00,,---,0.00,VWS V14.00,2013-07-17 14:28:00,
2013-07-17 10:33:00,83.9,76.3,30.19,North,358,7.0,9.0,78,0.00,,---,0.00,VWS V14.00,2013-07-17 14:33:00,
2013-07-17 10:38:00,84.8,76.0,30.19,North,349,2.0,11.0,75,0.00,,---,0.00,VWS V14.00,2013-07-17 14:38:00,
2013-07-17 10:43:00,85.4,75.8,30.19,NE,39,5.0,12.0,73,0.00,,---,0.00,VWS V14.00,2013-07-17 14:43:00,
2013-07-17 10:48:00,85.6,76.4,30.19,North,4,6.0,12.0,74,0.00,,---,0.00,VWS V14.00,2013-07-17 14:48:00,
2013-07-17 10:53:00,85.9,76.2,30.19,ENE,66,7.0,12.0,73,0.00,,---,0.00,VWS V14.00,2013-07-17 14:53:00,
2013-07-17 10:58:00,85.8,76.6,30.19,NE,39,4.0,5.0,74,0.00,,---,0.00,VWS V14.00,2013-07-17 14:58:00,
2013-07-17 11:03:00,85.9,76.2,30.19,NNE,29,3.0,10.0,73,0.00,,---,0.00,VWS V14.00,2013-07-17 15:03:00,
2013-07-17 11:08:00,86.3,75.8,30.19,North,2,4.0,10.0,71,0.00,,---,0.00,VWS V14.00,2013-07-17 15:08:00,
2013-07-17 11:13:00,86.5,75.1,30.19,NE,38,10.0,10.0,69,0.00,,---,0.00,VWS V14.00,2013-07-17 15:13:00,
2013-07-17 11:18:00,86.5,75.6,30.19,NE,35,3.0,10.0,70,0.00,,---,0.00,VWS V14.00,2013-07-17 15:18:00,
2013-07-17 11:23:00,86.7,76.2,30.19,ENE,64,2.0,10.0,71,0.00,,---,0.00,VWS V14.00,2013-07-17 15:23:00,
2013-07-17 11:28:00,87.2,77.1,30.19,North,7,4.0,5.0,72,0.00,,---,0.00,VWS V14.00,2013-07-17 15:28:00,
2013-07-17 11:33:00,87.7,76.3,30.19,North,7,6.0,9.0,69,0.00,,---,0.00,VWS V14.00,2013-07-17 15:33:00,
2013-07-17 11:38:00,87.5,76.1,30.18,NNW,341,5.0,9.0,69,0.00,,---,0.00,VWS V14.00,2013-07-17 15:38:00,
2013-07-17 11:43:00,87.7,76.7,30.18,NNE,17,3.0,11.0,70,0.00,,---,0.00,VWS V14.00,2013-07-17 15:43:00,
2013-07-17 11:48:00,88.0,76.6,30.18,North,8,3.0,11.0,69,0.00,,---,0.00,VWS V14.00,2013-07-17 15:48:00,
2013-07-17 11:53:00,88.4,76.5,30.19,North,1,7.0,11.0,68,0.00,,---,0.00,VWS V14.00,2013-07-17 15:53:00,
2013-07-17 11:58:00,88.8,76.0,30.18,NE,34,8.0,8.0,66,0.00,,---,0.00,VWS V14.00,2013-07-17 15:58:00,
2013-07-17 12:03:00,88.9,76.1,30.18,NNE,33,7.0,11.0,66,0.00,,---,0.00,VWS V14.00,2013-07-17 16:03:00,
2013-07-17 12:08:00,88.7,75.4,30.18,North,358,3.0,11.0,65,0.00,,---,0.00,VWS V14.00,2013-07-17 16:08:00,
2013-07-17 12:13:00,88.6,75.8,30.18,NNW,343,6.0,11.0,66,0.00,,---,0.00,VWS V14.00,2013-07-17 16:13:00,
2013-07-17 12:18:00,88.7,75.9,30.18,NE,52,5.0,11.0,66,0.00,,---,0.00,VWS V14.00,2013-07-17 16:18:00,
2013-07-17 12:23:00,88.7,75.9,30.18,NE,39,1.0,11.0,66,0.00,,---,0.00,VWS V14.00,2013-07-17 16:23:00,
2013-07-17 12:28:00,88.8,75.5,30.17,North,0,3.0,7.0,65,0.00,,---,0.00,VWS V14.00,2013-07-17 16:28:00,
2013-07-17 12:33:00,89.0,76.6,30.17,NNE,20,3.0,11.0,67,0.00,,---,0.00,VWS V14.00,2013-07-17 16:33:00,
2013-07-17 12:38:00,88.9,75.6,30.18,ENE,64,5.0,11.0,65,0.00,,---,0.00,VWS V14.00,2013-07-17 16:38:00,
2013-07-17 12:43:00,88.8,76.4,30.18,ENE,73,1.0,11.0,67,0.00,,---,0.00,VWS V14.00,2013-07-17 16:43:00,
2013-07-17 12:48:00,88.8,75.5,30.18,ENE,64,5.0,11.0,65,0.00,,---,0.00,VWS V14.00,2013-07-17 16:48:00,
2013-07-17 12:53:00,88.6,74.9,30.19,ENE,69,1.0,11.0,64,0.00,,---,0.00,VWS V14.00,2013-07-17 16:53:00,
2013-07-17 12:58:00,89.2,75.9,30.18,ENE,71,3.0,5.0,65,0.00,,---,0.00,VWS V14.00,2013-07-17 16:58:00,
2013-07-17 13:03:00,90.2,73.9,30.18,NE,56,6.0,9.0,59,0.00,,---,0.00,VWS V14.00,2013-07-17 17:03:00,
2013-07-17 13:08:00,90.4,76.1,30.18,SE,130,7.0,10.0,63,0.00,,---,0.00,VWS V14.00,2013-07-17 17:08:00,
2013-07-17 13:13:00,90.1,74.8,30.18,ESE,112,6.0,10.0,61,0.00,,---,0.00,VWS V14.00,2013-07-17 17:13:00,
2013-07-17 13:18:00,89.9,76.1,30.18,SE,127,8.0,10.0,64,0.00,,---,0.00,VWS V14.00,2013-07-17 17:18:00,
2013-07-17 13:23:00,89.4,76.1,30.18,ESE,105,6.0,10.0,65,0.00,,---,0.00,VWS V14.00,2013-07-17 17:23:00,
2013-07-17 13:28:00,89.3,76.0,30.18,SE,131,7.0,8.0,65,0.00,,---,0.00,VWS V14.00,2013-07-17 17:28:00,
2013-07-17 13:33:00,88.4,75.1,30.18,ESE,123,8.0,12.0,65,0.00,,---,0.00,VWS V14.00,2013-07-17 17:33:00,
2013-07-17 13:38:00,87.8,75.0,30.18,ESE,116,6.0,12.0,66,0.00,,---,0.00,VWS V14.00,2013-07-17 17:38:00,
2013-07-17 13:43:00,87.8,76.4,30.18,ESE,110,4.0,12.0,69,0.00,,---,0.00,VWS V14.00,2013-07-17 17:43:00,
2013-07-17 13:48:00,87.5,76.5,30.17,SE,131,5.0,12.0,70,0.00,,---,0.00,VWS V14.00,2013-07-17 17:48:00,
2013-07-17 13:53:00,87.3,77.2,30.17,ESE,121,5.0,12.0,72,0.00,,---,0.00,VWS V14.00,2013-07-17 17:53:00,
2013-07-17 13:58:00,87.0,76.9,30.17,ESE,118,6.0,6.0,72,0.00,,---,0.00,VWS V14.00,2013-07-17 17:58:00,
2013-07-17 14:03:00,86.7,76.6,30.17,ESE,106,6.0,10.0,72,0.00,,---,0.00,VWS V14.00,2013-07-17 18:03:00,
2013-07-17 14:08:00,86.5,77.2,30.17,East,93,5.0,10.0,74,0.00,,---,0.00,VWS V14.00,2013-07-17 18:08:00,
2013-07-17 14:13:00,86.3,77.0,30.17,ESE,108,6.0,10.0,74,0.00,,---,0.00,VWS V14.00,2013-07-17 18:13:00,
2013-07-17 14:18:00,86.1,76.4,30.17,ESE,102,6.0,10.0,73,0.00,,---,0.00,VWS V14.00,2013-07-17 18:18:00,
2013-07-17 14:23:00,85.8,75.7,30.16,ESE,106,4.0,10.0,72,0.00,,---,0.00,VWS V14.00,2013-07-17 18:23:00,
2013-07-17 14:28:00,85.7,75.2,30.16,ESE,106,4.0,4.0,71,0.00,,---,0.00,VWS V14.00,2013-07-17 18:28:00,
2013-07-17 14:33:00,85.8,74.5,30.16,East,100,5.0,8.0,69,0.00,,---,0.00,VWS V14.00,2013-07-17 18:33:00,
2013-07-17 14:38:00,85.8,74.0,30.16,East,101,6.0,8.0,68,0.00,,---,0.00,VWS V14.00,2013-07-17 18:38:00,
2013-07-17 14:43:00,86.0,74.7,30.16,ESE,109,5.0,8.0,69,0.00,,---,0.00,VWS V14.00,2013-07-17 18:43:00,
2013-07-17 14:48:00,86.0,73.8,30.16,ESE,112,5.0,9.0,67,0.00,,---,0.00,VWS V14.00,2013-07-17 18:48:00,
2013-07-17 14:53:00,86.1,74.3,30.15,ESE,102,6.0,9.0,68,0.00,,---,0.00,VWS V14.00,2013-07-17 18:53:00,
2013-07-17 14:58:00,86.2,74.0,30.15,SE,141,6.0,7.0,67,0.00,,---,0.00,VWS V14.00,2013-07-17 18:58:00,
2013-07-17 15:03:00,86.0,73.8,30.16,SE,128,4.0,10.0,67,0.00,,---,0.00,VWS V14.00,2013-07-17 19:03:00,
2013-07-17 15:08:00,86.0,75.1,30.15,ESE,117,4.0,10.0,70,0.00,,---,0.00,VWS V14.00,2013-07-17 19:08:00,
2013-07-17 15:13:00,85.9,75.0,30.16,ESE,109,6.0,10.0,70,0.00,,---,0.00,VWS V14.00,2013-07-17 19:13:00,
2013-07-17 15:18:00,85.9,74.1,30.15,ESE,112,7.0,10.0,68,0.00,,---,0.00,VWS V14.00,2013-07-17 19:18:00,
2013-07-17 15:23:00,86.0,75.9,30.15,East,91,5.0,10.0,72,0.00,,---,0.00,VWS V14.00,2013-07-17 19:23:00,
2013-07-17 15:28:00,86.1,75.2,30.15,SE,135,5.0,8.0,70,0.00,,---,0.00,VWS V14.00,2013-07-17 19:28:00,
2013-07-17 15:33:00,85.9,75.0,30.15,SE,130,7.0,9.0,70,0.00,,---,0.00,VWS V14.00,2013-07-17 19:33:00,
2013-07-17 15:38:00,86.1,75.2,30.15,ESE,122,7.0,9.0,70,0.00,,---,0.00,VWS V14.00,2013-07-17 19:38:00,
2013-07-17 15:43:00,86.6,75.7,30.15,ESE,102,5.0,9.0,70,0.00,,---,0.00,VWS V14.00,2013-07-17 19:43:00,
2013-07-17 15:48:00,87.0,75.6,30.14,ESE,123,7.0,10.0,69,0.00,,---,0.00,VWS V14.00,2013-07-17 19:48:00,
2013-07-17 15:53:00,87.0,75.2,30.14,ESE,108,8.0,12.0,68,0.00,,---,0.00,VWS V14.00,2013-07-17 19:53:00,
2013-07-17 15:58:00,86.5,74.7,30.14,SE,127,6.0,9.0,68,0.00,,---,0.00,VWS V14.00,2013-07-17 19:58:00,
2013-07-17 16:03:00,86.4,75.5,30.14,SE,137,4.0,9.0,70,0.00,,---,0.00,VWS V14.00,2013-07-17 20:03:00,
2013-07-17 16:08:00,86.7,75.3,30.14,ESE,115,6.0,9.0,69,0.00,,---,0.00,VWS V14.00,2013-07-17 20:08:00,
2013-07-17 16:13:00,86.7,75.8,30.14,ESE,120,8.0,9.0,70,0.00,,---,0.00,VWS V14.00,2013-07-17 20:13:00,
2013-07-17 16:18:00,86.5,76.4,30.14,SE,131,2.0,9.0,72,0.00,,---,0.00,VWS V14.00,2013-07-17 20:18:00,
2013-07-17 16:23:00,86.1,75.6,30.14,SE,126,7.0,9.0,71,0.00,,---,0.00,VWS V14.00,2013-07-17 20:23:00,
2013-07-17 16:28:00,86.1,75.6,30.14,SE,131,6.0,7.0,71,0.00,,---,0.00,VWS V14.00,2013-07-17 20:28:00,
2013-07-17 16:33:00,85.7,76.5,30.14,SE,135,6.0,9.0,74,0.00,,---,0.00,VWS V14.00,2013-07-17 20:33:00,
2013-07-17 16:38:00,84.7,75.9,30.14,South,177,7.0,9.0,75,0.00,,---,0.00,VWS V14.00,2013-07-17 20:38:00,
2013-07-17 16:43:00,84.3,76.3,30.14,SE,136,4.0,9.0,77,0.00,,---,0.00,VWS V14.00,2013-07-17 20:43:00,
2013-07-17 16:48:00,84.2,76.2,30.13,SE,125,4.0,9.0,77,0.00,,---,0.00,VWS V14.00,2013-07-17 20:48:00,
2013-07-17 16:53:00,84.1,76.9,30.13,SSE,155,4.0,9.0,79,0.00,,---,0.00,VWS V14.00,2013-07-17 20:53:00,
2013-07-17 16:58:00,84.1,77.3,30.13,SSE,161,4.0,6.0,80,0.00,,---,0.00,VWS V14.00,2013-07-17 20:58:00,
2013-07-17 17:03:00,84.1,76.9,30.12,SSE,158,3.0,7.0,79,0.00,,---,0.00,VWS V14.00,2013-07-17 21:03:00,
2013-07-17 17:08:00,84.1,76.9,30.12,SE,128,5.0,7.0,79,0.00,,---,0.00,VWS V14.00,2013-07-17 21:08:00,
2013-07-17 17:13:00,84.0,76.8,30.12,SSE,149,3.0,9.0,79,0.00,,---,0.00,VWS V14.00,2013-07-17 21:13:00,
2013-07-17 17:18:00,84.3,77.8,30.12,SSE,158,5.0,9.0,81,0.00,,---,0.00,VWS V14.00,2013-07-17 21:18:00,
2013-07-17 17:23:00,84.1,76.5,30.12,SSE,156,7.0,10.0,78,0.00,,---,0.00,VWS V14.00,2013-07-17 21:23:00,
2013-07-17 17:28:00,83.8,76.6,30.12,SSE,160,6.0,8.0,79,0.00,,---,0.00,VWS V14.00,2013-07-17 21:28:00,
2013-07-17 17:33:00,83.5,76.3,30.12,SE,144,7.0,11.0,79,0.00,,---,0.00,VWS V14.00,2013-07-17 21:33:00,
2013-07-17 17:38:00,83.4,75.8,30.12,SE,136,6.0,11.0,78,0.00,,---,0.00,VWS V14.00,2013-07-17 21:38:00,
2013-07-17 17:43:00,83.5,76.3,30.12,SSE,148,5.0,11.0,79,0.00,,---,0.00,VWS V14.00,2013-07-17 21:43:00,
2013-07-17 17:48:00,83.5,75.5,30.12,SE,139,7.0,11.0,77,0.00,,---,0.00,VWS V14.00,2013-07-17 21:48:00,
2013-07-17 17:53:00,83.5,76.3,30.12,SSE,149,6.0,11.0,79,0.00,,---,0.00,VWS V14.00,2013-07-17 21:53:00,
2013-07-17 17:58:00,83.2,76.0,30.12,SSE,150,5.0,8.0,79,0.00,,---,0.00,VWS V14.00,2013-07-17 21:58:00,
2013-07-17 18:03:00,83.2,76.4,30.12,SSE,161,5.0,11.0,80,0.00,,---,0.00,VWS V14.00,2013-07-17 22:03:00,
2013-07-17 18:08:00,83.3,76.1,30.12,SE,138,7.0,11.0,79,0.00,,---,0.00,VWS V14.00,2013-07-17 22:08:00,
2013-07-17 18:13:00,83.3,74.9,30.12,SE,145,5.0,11.0,76,0.00,,---,0.00,VWS V14.00,2013-07-17 22:13:00,
2013-07-17 18:18:00,83.2,75.6,30.12,SE,134,3.0,11.0,78,0.00,,---,0.00,VWS V14.00,2013-07-17 22:18:00,
2013-07-17 18:23:00,83.3,75.7,30.12,SSE,151,3.0,11.0,78,0.00,,---,0.00,VWS V14.00,2013-07-17 22:23:00,
2013-07-17 18:28:00,83.1,75.2,30.12,SSE,150,6.0,6.0,77,0.00,,---,0.00,VWS V14.00,2013-07-17 22:28:00,
2013-07-17 18:33:00,83.0,75.1,30.12,SSE,168,3.0,6.0,77,0.00,,---,0.00,VWS V14.00,2013-07-17 22:33:00,
2013-07-17 18:38:00,82.9,74.9,30.12,SSE,164,3.0,6.0,77,0.00,,---,0.00,VWS V14.00,2013-07-17 22:38:00,
2013-07-17 18:43:00,82.9,75.3,30.12,SSE,165,2.0,6.0,78,0.00,,---,0.00,VWS V14.00,2013-07-17 22:43:00,
2013-07-17 18:48:00,82.9,75.3,30.12,SSE,165,3.0,6.0,78,0.00,,---,0.00,VWS V14.00,2013-07-17 22:48:00,
2013-07-17 18:53:00,82.9,74.9,30.12,South,181,2.0,6.0,77,0.00,,---,0.00,VWS V14.00,2013-07-17 22:53:00,
2013-07-17 18:58:00,82.7,74.4,30.12,South,174,3.0,4.0,76,0.00,,---,0.00,VWS V14.00,2013-07-17 22:58:00,
2013-07-17 19:03:00,82.7,74.8,30.13,South,169,3.0,7.0,77,0.00,,---,0.00,VWS V14.00,2013-07-17 23:03:00,
2013-07-17 19:08:00,82.4,74.1,30.13,SSE,158,6.0,7.0,76,0.00,,---,0.00,VWS V14.00,2013-07-17 23:08:00,
2013-07-17 19:13:00,82.3,74.4,30.13,SSE,157,3.0,7.0,77,0.00,,---,0.00,VWS V14.00,2013-07-17 23:13:00,
2013-07-17 19:18:00,82.1,74.2,30.13,SE,145,2.0,7.0,77,0.00,,---,0.00,VWS V14.00,2013-07-17 23:18:00,
2013-07-17 19:23:00,82.0,74.5,30.13,SSE,153,2.0,7.0,78,0.00,,---,0.00,VWS V14.00,2013-07-17 23:23:00,
2013-07-17 19:28:00,81.7,73.8,30.13,SSE,150,2.0,3.0,77,0.00,,---,0.00,VWS V14.00,2013-07-17 23:28:00,
2013-07-17 19:33:00,81.4,73.9,30.12,SSE,150,3.0,5.0,78,0.00,,---,0.00,VWS V14.00,2013-07-17 23:33:00,
2013-07-17 19:38:00,81.3,74.2,30.13,SSE,162,2.0,5.0,79,0.00,,---,0.00,VWS V14.00,2013-07-17 23:38:00,
2013-07-17 19:43:00,81.1,74.0,30.13,SE,137,3.0,5.0,79,0.00,,---,0.00,VWS V14.00,2013-07-17 23:43:00,
2013-07-17 19:48:00,80.9,74.2,30.13,SE,137,4.0,5.0,80,0.00,,---,0.00,VWS V14.00,2013-07-17 23:48:00,
2013-07-17 19:53:00,80.7,74.3,30.13,SE,135,2.0,5.0,81,0.00,,---,0.00,VWS V14.00,2013-07-17 23:53:00,
2013-07-17 19:58:00,80.6,74.6,30.13,SE,135,3.0,3.0,82,0.00,,---,0.00,VWS V14.00,2013-07-17 23:58:00,
2013-07-17 20:03:00,80.5,74.9,30.13,SE,135,0.0,3.0,83,0.00,,---,0.00,VWS V14.00,2013-07-18 00:03:00,
2013-07-17 20:08:00,80.3,74.7,30.13,SE,135,0.0,3.0,83,0.00,,---,0.00,VWS V14.00,2013-07-18 00:08:00,
2013-07-17 20:13:00,80.2,74.9,30.13,SE,135,0.0,3.0,84,0.00,,---,0.00,VWS V14.00,2013-07-18 00:13:00,
2013-07-17 20:18:00,80.2,74.9,30.13,SE,135,0.0,3.0,84,0.00,,---,0.00,VWS V14.00,2013-07-18 00:18:00,
2013-07-17 20:23:00,80.0,74.7,30.13,SE,135,0.0,3.0,84,0.00,,---,0.00,VWS V14.00,2013-07-18 00:23:00,
2013-07-17 20:28:00,79.9,74.6,30.13,SE,136,0.0,0.0,84,0.00,,---,0.00,VWS V14.00,2013-07-18 00:28:00,
2013-07-17 20:33:00,79.8,74.5,30.13,SE,135,1.0,1.0,84,0.00,,---,0.00,VWS V14.00,2013-07-18 00:33:00,
2013-07-17 20:38:00,79.3,74.4,30.13,SE,135,0.0,2.0,85,0.00,,---,0.00,VWS V14.00,2013-07-18 00:38:00,
2013-07-17 20:43:00,79.0,74.5,30.14,SE,135,0.0,2.0,86,0.00,,---,0.00,VWS V14.00,2013-07-18 00:43:00,
2013-07-17 20:48:00,78.7,74.5,30.14,SE,135,0.0,2.0,87,0.00,,---,0.00,VWS V14.00,2013-07-18 00:48:00,
2013-07-17 20:53:00,78.4,74.6,30.14,SE,135,0.0,2.0,88,0.00,,---,0.00,VWS V14.00,2013-07-18 00:53:00,
2013-07-17 20:58:00,78.0,74.2,30.14,SE,135,0.0,0.0,88,0.00,,---,0.00,VWS V14.00,2013-07-18 00:58:00,
2013-07-17 21:03:00,77.8,74.0,30.14,SE,136,0.0,0.0,88,0.00,,---,0.00,VWS V14.00,2013-07-18 01:03:00,
2013-07-17 21:08:00,77.6,74.1,30.14,SE,135,0.0,0.0,89,0.00,,---,0.00,VWS V14.00,2013-07-18 01:08:00,
2013-07-17 21:13:00,77.7,74.2,30.14,SE,135,0.0,0.0,89,0.00,,---,0.00,VWS V14.00,2013-07-18 01:13:00,
2013-07-17 21:18:00,77.6,73.8,30.14,SE,135,0.0,0.0,88,0.00,,---,0.00,VWS V14.00,2013-07-18 01:18:00,
2013-07-17 21:23:00,77.2,73.7,30.14,SE,135,0.0,0.0,89,0.00,,---,0.00,VWS V14.00,2013-07-18 01:23:00,
2013-07-17 21:28:00,76.9,73.8,30.14,SE,135,0.0,0.0,90,0.00,,---,0.00,VWS V14.00,2013-07-18 01:28:00,
2013-07-17 21:33:00,76.9,73.8,30.15,SE,135,0.0,0.0,90,0.00,,---,0.00,VWS V14.00,2013-07-18 01:33:00,
2013-07-17 21:38:00,77.0,74.2,30.15,SE,135,0.0,0.0,91,0.00,,---,0.00,VWS V14.00,2013-07-18 01:38:00,
2013-07-17 21:43:00,77.0,74.2,30.15,SE,135,0.0,0.0,91,0.00,,---,0.00,VWS V14.00,2013-07-18 01:43:00,
2013-07-17 21:48:00,77.1,74.3,30.15,SE,135,0.0,0.0,91,0.00,,---,0.00,VWS V14.00,2013-07-18 01:48:00,
2013-07-17 21:53:00,77.1,74.3,30.15,SE,136,0.0,0.0,91,0.00,,---,0.00,VWS V14.00,2013-07-18 01:53:00,
2013-07-17 21:58:00,76.6,73.8,30.15,SE,135,0.0,0.0,91,0.00,,---,0.00,VWS V14.00,2013-07-18 01:58:00,
2013-07-17 22:03:00,76.3,73.5,30.15,SE,135,0.0,0.0,91,0.00,,---,0.00,VWS V14.00,2013-07-18 02:03:00,
2013-07-17 22:08:00,76.3,73.8,30.15,SE,135,1.0,1.0,92,0.00,,---,0.00,VWS V14.00,2013-07-18 02:08:00,
2013-07-17 22:13:00,76.3,73.8,30.15,SE,135,1.0,2.0,92,0.00,,---,0.00,VWS V14.00,2013-07-18 02:13:00,
2013-07-17 22:18:00,76.4,73.9,30.15,SE,136,1.0,2.0,92,0.00,,---,0.00,VWS V14.00,2013-07-18 02:18:00,
2013-07-17 22:23:00,76.5,73.7,30.15,SE,135,0.0,2.0,91,0.00,,---,0.00,VWS V14.00,2013-07-18 02:23:00,
2013-07-17 22:28:00,76.3,73.5,30.15,SE,135,0.0,0.0,91,0.00,,---,0.00,VWS V14.00,2013-07-18 02:28:00,
2013-07-17 22:33:00,76.1,73.3,30.15,SE,135,0.0,0.0,91,0.00,,---,0.00,VWS V14.00,2013-07-18 02:33:00,
2013-07-17 22:38:00,75.8,73.0,30.15,SE,135,0.0,0.0,91,0.00,,---,0.00,VWS V14.00,2013-07-18 02:38:00,
2013-07-17 22:43:00,75.8,73.3,30.15,SE,135,0.0,0.0,92,0.00,,---,0.00,VWS V14.00,2013-07-18 02:43:00,
2013-07-17 22:48:00,75.8,73.3,30.15,SE,136,0.0,0.0,92,0.00,,---,0.00,VWS V14.00,2013-07-18 02:48:00,
2013-07-17 22:53:00,75.7,73.2,30.15,SE,135,0.0,0.0,92,0.00,,---,0.00,VWS V14.00,2013-07-18 02:53:00,
2013-07-17 22:58:00,75.5,72.7,30.15,SE,135,0.0,0.0,91,0.00,,---,0.00,VWS V14.00,2013-07-18 02:58:00,
2013-07-17 23:03:00,75.4,72.9,30.15,SE,136,0.0,0.0,92,0.00,,---,0.00,VWS V14.00,2013-07-18 03:03:00,
2013-07-17 23:08:00,75.2,72.7,30.14,SE,135,0.0,0.0,92,0.00,,---,0.00,VWS V14.00,2013-07-18 03:08:00,
2013-07-17 23:13:00,75.0,72.5,30.14,SE,135,0.0,1.0,92,0.00,,---,0.00,VWS V14.00,2013-07-18 03:13:00,
2013-07-17 23:18:00,74.8,72.3,30.14,SE,135,0.0,1.0,92,0.00,,---,0.00,VWS V14.00,2013-07-18 03:18:00,
2013-07-17 23:23:00,74.7,72.2,30.14,SE,136,0.0,1.0,92,0.00,,---,0.00,VWS V14.00,2013-07-18 03:23:00,
2013-07-17 23:28:00,74.6,72.4,30.14,SE,136,0.0,0.0,93,0.00,,---,0.00,VWS V14.00,2013-07-18 03:28:00,
2013-07-17 23:33:00,74.6,72.4,30.14,SE,136,0.0,0.0,93,0.00,,---,0.00,VWS V14.00,2013-07-18 03:33:00,
2013-07-17 23:38:00,74.6,72.4,30.14,SE,135,0.0,0.0,93,0.00,,---,0.00,VWS V14.00,2013-07-18 03:38:00,
2013-07-17 23:43:00,74.6,72.4,30.14,SE,135,0.0,0.0,93,0.00,,---,0.00,VWS V14.00,2013-07-18 03:43:00,
2013-07-17 23:48:00,74.1,71.9,30.14,SE,135,0.0,1.0,93,0.00,,---,0.00,VWS V14.00,2013-07-18 03:48:00,
2013-07-17 23:53:00,73.9,71.8,30.14,SE,135,0.0,1.0,93,0.00,,---,0.00,VWS V14.00,2013-07-18 03:53:00,
2013-07-17 23:58:00,74.2,72.4,30.14,SE,135,0.0,0.0,94,0.00,,---,0.00,VWS V14.00,2013-07-18 03:58:00,